Regional Weather Roundup
Issued by NWS

Home | Current Version | Previous Version | Text Only | Print | Product List | Glossary On
Versions: 1 2 3 4 5 6 7 8 9 10 11 12 13 14 15 16 17 18 19 20 21 22 23 24 25 26 27 28 29 30 31 32 33 34 35 36 37 38 39 40 41 42 43 44 45 46 47 48 49 50
000
ASUS45 KBOU 132210
RWRCO

WEATHER ROUNDUP FOR COLORADO
NATIONAL WEATHER SERVICE DENVER/BOULDER CO
400 PM MDT SUN JUL 13 2014

NOTE: "FAIR" INDICATES FEW OR NO CLOUDS BELOW 12000 FEET WITH NO
SIGNIFICANT WEATHER AND/OR OBSTRUCTIONS TO VISIBILITY.

COZ001>005-013-030-031-132300-
...NORTHWEST COLORADO...

CITY           SKY/WX    TMP DP  RH WIND       PRES   REMARKS
CRAIG          MOSUNNY   84  43  23 W12       30.27F
HAYDEN         SUNNY     86  36  16 NW10G16   30.29F
MEEKER         MOSUNNY   85  43  22 N8        30.28F
MOUNT WERNER   NOT AVBL
STEAMBOAT SPGS SUNNY     83  41  22 NW5       30.32F
WALDEN         PTSUNNY   70  41  35 CALM      30.44F
$$

COZ006>008-011-132300-
...WEST CENTRAL VALLEYS...

CITY           SKY/WX    TMP DP  RH WIND       PRES   REMARKS
GRAND JUNCTION   N/A     95  44  17 VRB7      30.11F
MONTROSE       MOSUNNY   93  43  17 W13       30.20F
EAGLE          MOSUNNY   82  45  26 CALM      30.29F
RIFLE          MOSUNNY   90  44  20 N6        30.17F
DELTA          MOSUNNY   97  45  16 S5        30.14F
NUCLA          MOSUNNY   93  39  15 E12       30.25F
$$

COZ017>023-064>068-132300-
...SOUTHWEST COLORADO...

CITY           SKY/WX    TMP DP  RH WIND       PRES   REMARKS
DURANGO        PTSUNNY   87  46  24 W12G20    30.26F
CORTEZ         MOSUNNY   91  47  21 N12       30.20F
PAGOSA SPRINGS TSTM      66  55  67 CALM      30.38R
TELLURIDE      PTSUNNY   70  52  52 CALM      30.49F
WOLF CREEK PAS NOT AVBL
$$

COZ009-010-012-014-032>034-037-058>063-132300-
...CENTRAL COLORADO...

CITY           SKY/WX    TMP DP  RH WIND       PRES   REMARKS
ASPEN          PTSUNNY   79  44  28 N14G21    30.36F
BUENA VISTA    PTSUNNY   72  47  40 E15       30.42R
COPPER MTN     PTSUNNY   64  36  34 W22       30.74S
BERTHOUD PASS  PTSUNNY   52  37  58 MISG      30.79F
COTTONWOOD PAS PTSUNNY   70  54  56 SE10      30.56R THUNDER
GUNNISON       MOSUNNY   75  48  38 NW3       30.36F
KREMMLING      SUNNY     82  34  17 N13G24    30.36S
LEADVILLE      CLOUDY    69  40  34 N17       30.53F
MONARCH PASS   CLOUDY    50  41  71 E5        30.83F THUNDER
SALIDA         CLOUDY   N/A N/A N/A W12       30.47R
SUNLIGHT       PTSUNNY   66  50  55 CALM      30.67F
WILKERSON PASS PTSUNNY   54  46  76 SE7       30.71S THUNDER
$$

COZ069>075-132300-
...SAN LUIS VALLEY/SANGRE DE CRISTO MOUNTAINS...

CITY           SKY/WX    TMP DP  RH WIND       PRES   REMARKS
ALAMOSA        MOSUNNY   82  46  28 SE10      30.33F
LA VETA PASS   PTSUNNY   64  52  63 E14G23    30.60F
SAGUACHE       NOT AVBL
$$

COZ035-036-038>040-132300-
...NORTHERN COLORADO FRONT RANGE...

CITY           SKY/WX    TMP DP  RH WIND       PRES   REMARKS
DENVER INTL AP PTSUNNY   84  51  31 SE9       30.25F
DMNS CITY PARK   N/A     83  49  31 SE2G9     30.23F
AURORA         MOSUNNY   82  52  35 E7        30.27F
FRONT RANGE AP PTSUNNY   86  52  30 SE5G17    30.26F
ERIE MUNI ARPT MOSUNNY   87  44  22 CALM      30.22S
BOULDER MUN AP MOSUNNY   84  50  30 E6        30.22S
CENTENNIAL     PTSUNNY   81  48  31 CALM      30.27F
BROOMFIELD     PTSUNNY   84  50  30 E12       30.26F
FORT COLLINS   MOSUNNY   82  52  34 S7        30.22R
LONGMONT       LGT RAIN  82  56  39 E5        30.24S
$$

COZ041-046-047-076>085-087-088-132300-
...PIKES PEAK/PALMER DIVIDE AND SOUTHERN FOOTHILLS...

CITY           SKY/WX    TMP DP  RH WIND       PRES   REMARKS
COLO. SPRINGS  PTSUNNY   75  57  53 SE10      30.33F
A. F. ACADEMY  PTSUNNY   74  56  53 S13       30.34F
ELLICOTT       MOSUNNY   78  55  44 SE10      30.31
FALCON         PTSUNNY   73  55  54 S10       30.38F
FORT CARSON    MOSUNNY   77  60  55 S9        30.30F
LIMON          MOSUNNY   82  55  39 SE13      30.25F
MONUMENT HILL  MOSUNNY   75  52  43 S12G17    30.36F
TRINIDAD       SUNNY     82  55  39 NE7       30.27F
$$

COZ042>045-048>051-090-091-132300-
...NORTHEAST COLORADO...

CITY           SKY/WX    TMP DP  RH WIND       PRES   REMARKS
GREELEY ARPT   NOT AVBL
AKRON          MOSUNNY   82  58  43 S10       30.20F
BURLINGTON     SUNNY     84  57  39 S9        30.19F
WRAY             N/A     77  63  62 E9        30.18F
STERLING       LGT RAIN  77  63  61 NE13      30.18R
HOLYOKE        PTSUNNY   79  63  57 SE8       30.17F
FORT MORGAN    MOSUNNY   82  53  37 NE7       30.21R
$$

COZ086-089-092>099-132300-
...SOUTHEAST COLORADO...

CITY           SKY/WX    TMP DP  RH WIND       PRES   REMARKS
PUEBLO         MOSUNNY   82  59  45 VRB5      30.22F
LA JUNTA       MOSUNNY   82  62  50 E10       30.19F
LAMAR          MOSUNNY   82  60  47 SE3       30.16F
SPRINGFIELD      N/A     84  58  40 SE7       30.19F
$$



USA.gov is the U.S. government's official web portal to all federal, state and local government web resources and services.